TimeEDT,TemperatureF,Dew PointF,Humidity,Sea Level PressureIn,VisibilityMPH,Wind Direction,Wind SpeedMPH,Gust SpeedMPH,PrecipitationIn,Events,Conditions,WindDirDegrees,DateUTC
12:37 AM,51.8,46.4,82,29.90,9.0,Calm,Calm,-,N/A,,Overcast,0,2013-06-27 04:37:00
12:44 AM,51.8,46.4,82,29.89,9.0,NE,3.5,-,N/A,,Overcast,50,2013-06-27 04:44:00
12:53 AM,51.1,46.0,83,29.90,9.0,East,3.5,-,N/A,,Overcast,80,2013-06-27 04:53:00
1:01 AM,51.8,46.4,82,29.89,9.0,Calm,Calm,-,N/A,,Overcast,0,2013-06-27 05:01:00
1:53 AM,50.0,45.0,83,29.89,10.0,Variable,3.5,-,N/A,,Overcast,0,2013-06-27 05:53:00
2:53 AM,50.0,45.0,83,29.89,10.0,ESE,3.5,-,N/A,,Overcast,120,2013-06-27 06:53:00
3:53 AM,48.9,45.0,86,29.88,10.0,Variable,5.8,-,0.00,,Overcast,0,2013-06-27 07:53:00
4:53 AM,48.9,45.0,86,29.88,10.0,Variable,3.5,-,N/A,,Overcast,0,2013-06-27 08:53:00
5:05 AM,48.2,44.6,87,29.86,10.0,SE,4.6,-,N/A,,Overcast,130,2013-06-27 09:05:00
5:53 AM,48.9,45.0,86,29.87,10.0,Variable,4.6,-,N/A,,Overcast,0,2013-06-27 09:53:00
6:23 AM,48.2,46.4,93,29.88,7.0,Calm,Calm,-,0.02,Rain,Light Rain,0,2013-06-27 10:23:00
6:53 AM,48.0,46.0,93,29.89,9.0,Variable,3.5,-,0.02,,Overcast,0,2013-06-27 10:53:00
7:53 AM,48.9,46.9,93,29.88,8.0,Variable,3.5,-,N/A,,Overcast,0,2013-06-27 11:53:00
8:53 AM,48.9,46.9,93,29.90,6.0,Calm,Calm,-,0.00,,Overcast,0,2013-06-27 12:53:00
9:09 AM,48.2,46.4,93,29.89,1.5,ESE,8.1,-,0.10,Rain,Heavy Rain,110,2013-06-27 13:09:00
9:17 AM,48.2,46.4,93,29.88,1.2,East,3.5,-,0.14,Rain,Rain,80,2013-06-27 13:17:00
9:21 AM,48.2,46.4,93,29.88,2.0,Calm,Calm,-,0.15,Rain,Rain,0,2013-06-27 13:21:00
9:34 AM,48.2,46.4,93,29.88,3.0,SE,3.5,-,0.17,Rain,Rain,130,2013-06-27 13:34:00
9:44 AM,48.2,48.2,100,29.89,7.0,Calm,Calm,-,0.18,Rain,Light Rain,0,2013-06-27 13:44:00
9:53 AM,48.9,46.9,93,29.89,10.0,Variable,4.6,-,0.18,,Overcast,0,2013-06-27 13:53:00
10:53 AM,50.0,48.0,93,29.91,9.0,Calm,Calm,-,0.00,,Overcast,0,2013-06-27 14:53:00
11:53 AM,51.1,48.9,92,29.91,10.0,Variable,3.5,-,N/A,,Overcast,0,2013-06-27 15:53:00
12:53 PM,53.1,50.0,89,29.91,10.0,Variable,3.5,-,N/A,,Overcast,0,2013-06-27 16:53:00
1:53 PM,53.1,50.0,89,29.92,4.0,SE,4.6,-,N/A,,Overcast,130,2013-06-27 17:53:00
2:53 PM,54.0,51.1,90,29.92,8.0,East,6.9,-,N/A,,Overcast,100,2013-06-27 18:53:00
3:53 PM,55.0,51.1,86,29.93,9.0,East,5.8,-,N/A,,Overcast,80,2013-06-27 19:53:00
4:53 PM,54.0,51.1,90,29.93,9.0,East,6.9,-,N/A,,Overcast,80,2013-06-27 20:53:00
5:53 PM,54.0,52.0,93,29.93,4.0,East,8.1,-,N/A,,Overcast,80,2013-06-27 21:53:00
6:53 PM,55.0,52.0,89,29.95,10.0,Variable,3.5,-,N/A,,Overcast,0,2013-06-27 22:53:00
7:53 PM,54.0,52.0,93,29.97,2.0,Calm,Calm,-,0.00,Rain,Light Rain,0,2013-06-27 23:53:00
8:01 PM,53.6,53.6,100,29.96,1.5,Calm,Calm,-,0.00,Rain,Light Rain,0,2013-06-28 00:01:00
8:12 PM,53.6,51.8,94,29.95,2.0,ENE,3.5,-,0.01,Rain,Light Rain,70,2013-06-28 00:12:00
8:30 PM,53.6,51.8,94,29.93,4.0,ENE,3.5,-,0.01,,Overcast,60,2013-06-28 00:30:00
8:53 PM,54.0,52.0,93,29.96,10.0,Variable,3.5,-,0.01,,Overcast,0,2013-06-28 00:53:00
9:38 PM,53.6,51.8,94,29.95,10.0,Calm,Calm,-,N/A,,Overcast,0,2013-06-28 01:38:00
9:45 PM,53.6,51.8,94,29.95,10.0,Variable,3.5,-,N/A,,Overcast,0,2013-06-28 01:45:00
9:53 PM,54.0,52.0,93,29.96,10.0,ENE,3.5,-,N/A,,Overcast,70,2013-06-28 01:53:00
10:53 PM,54.0,53.1,97,29.96,4.0,Variable,3.5,-,N/A,,Overcast,0,2013-06-28 02:53:00
11:53 PM,53.1,51.1,93,29.95,8.0,East,5.8,-,N/A,,Overcast,80,2013-06-28 03:53:00